TimeCDT,TemperatureF,Dew PointF,Humidity,Sea Level PressureIn,VisibilityMPH,Wind Direction,Wind SpeedMPH,Gust SpeedMPH,PrecipitationIn,Events,Conditions,WindDirDegrees,DateUTC
12:53 AM,35.1,15.1,44,29.96,10.0,NNE,8.1,-,N/A,,Clear,30,2013-04-11 05:53:00
1:53 AM,32.0,15.1,50,29.96,10.0,NE,5.8,-,N/A,,Partly Cloudy,40,2013-04-11 06:53:00
2:53 AM,30.0,14.0,51,29.96,10.0,NE,5.8,-,N/A,,Clear,40,2013-04-11 07:53:00
3:53 AM,28.9,14.0,54,29.94,10.0,NE,4.6,-,N/A,,Partly Cloudy,40,2013-04-11 08:53:00
4:53 AM,30.9,15.1,52,29.93,10.0,South,4.6,-,N/A,,Partly Cloudy,190,2013-04-11 09:53:00
5:53 AM,32.0,14.0,48,29.90,10.0,South,8.1,-,N/A,,Clear,170,2013-04-11 10:53:00
6:53 AM,32.0,15.1,50,29.89,10.0,South,8.1,-,N/A,,Partly Cloudy,180,2013-04-11 11:53:00
7:53 AM,32.0,15.1,50,29.91,10.0,Calm,Calm,-,N/A,,Partly Cloudy,0,2013-04-11 12:53:00
8:53 AM,37.0,15.1,41,29.91,10.0,SSE,5.8,-,N/A,,Clear,160,2013-04-11 13:53:00
9:53 AM,42.8,14.0,31,29.90,10.0,SSE,5.8,-,N/A,,Clear,160,2013-04-11 14:53:00
10:53 AM,45.0,15.1,30,29.87,10.0,South,9.2,-,N/A,,Clear,190,2013-04-11 15:53:00
11:53 AM,51.8,19.4,28,29.88,10.0,SW,12.7,18.4,N/A,,Clear,230,2013-04-11 16:53:00
12:53 PM,57.0,19.9,24,29.81,10.0,SW,11.5,20.7,N/A,,Clear,230,2013-04-11 17:53:00
1:53 PM,62.1,19.9,20,29.78,10.0,SSW,13.8,-,N/A,,Clear,200,2013-04-11 18:53:00
2:53 PM,64.9,18.7,17,29.74,10.0,SSW,11.5,-,N/A,,Clear,210,2013-04-11 19:53:00
3:53 PM,68.0,17.1,14,29.71,10.0,West,16.1,19.6,N/A,,Partly Cloudy,270,2013-04-11 20:53:00
4:53 PM,69.1,14.0,12,29.70,10.0,NW,11.5,21.9,N/A,,Partly Cloudy,320,2013-04-11 21:53:00
5:53 PM,68.0,17.1,14,29.71,10.0,North,9.2,19.6,N/A,,Partly Cloudy,10,2013-04-11 22:53:00
6:53 PM,66.9,18.0,15,29.72,10.0,North,8.1,-,N/A,,Scattered Clouds,360,2013-04-11 23:53:00
7:53 PM,64.0,18.0,17,29.73,10.0,Variable,4.6,-,N/A,,Partly Cloudy,0,2013-04-12 00:53:00
8:53 PM,61.0,17.1,18,29.73,10.0,NE,3.5,-,N/A,,Partly Cloudy,50,2013-04-12 01:53:00
9:53 PM,55.9,15.1,20,29.81,10.0,SE,4.6,-,N/A,,Clear,140,2013-04-12 02:53:00
10:53 PM,54.0,15.1,22,29.78,10.0,SSE,8.1,-,N/A,,Clear,150,2013-04-12 03:53:00
11:53 PM,52.0,19.0,27,29.78,10.0,South,6.9,-,N/A,,Scattered Clouds,180,2013-04-12 04:53:00